This is the latest recevied weather packets stored in our database for station/object I8ZSE-10. If no packets are shown the sender has not sent any weather packets the latest 10 day(s).
| Time | Temp. | Humidity | Pressure | Rain* | Wind** | Luminosity | Snow |
|---|---|---|---|---|---|---|---|
| 1777750808 | 10° C | 60% | 1020.7 hPa | 0 mm | - | - | - |
| 1777750208 | 10° C | 59% | 1020.7 hPa | 0 mm | - | - | - |
| 1777749608 | 10.56° C | 59% | 1020.7 hPa | 0 mm | - | - | - |
| 1777749008 | 10.56° C | 58% | 1020.5 hPa | 0 mm | - | - | - |
| 1777748408 | 11.11° C | 58% | 1020.5 hPa | 0 mm | - | - | - |
| 1777747808 | 11.11° C | 57% | 1020.7 hPa | 0 mm | - | - | - |
| 1777747208 | 11.11° C | 57% | 1021.1 hPa | 0 mm | - | - | - |
| 1777746608 | 11.11° C | 56% | 1022 hPa | 0 mm | - | - | - |
| 1777746008 | 11.67° C | 53% | 1022 hPa | 0 mm | - | - | - |
| 1777745408 | 11.67° C | 50% | 1022.1 hPa | 0 mm | - | - | - |
| 1777744808 | 12.22° C | 47% | 1022.1 hPa | 0 mm | - | - | - |
| 1777744208 | 12.22° C | 45% | 1022.1 hPa | 0 mm | - | - | - |
| 1777743608 | 12.78° C | 45% | 1022 hPa | 0 mm | - | - | - |
| 1777743008 | 12.78° C | 44% | 1021.7 hPa | 0 mm | - | - | - |
| 1777742408 | 13.33° C | 42% | 1021.1 hPa | 0 mm | - | - | - |
| 1777741748 | 13.33° C | 41% | 1022.2 hPa | 0 mm | - | - | - |
| 1777741149 | 13.33° C | 41% | 1022.2 hPa | 0 mm | - | - | - |
| 1777740548 | 13.33° C | 40% | 1022.4 hPa | 0 mm | - | - | - |
| 1777739948 | 13.33° C | 40% | 1022.3 hPa | 0 mm | - | - | - |
| 1777739349 | 13.89° C | 40% | 1022.4 hPa | 0 mm | - | - | - |
| 1777738748 | 13.89° C | 39% | 1022.5 hPa | 0 mm | - | - | - |
| 1777738148 | 13.89° C | 40% | 1022.5 hPa | 0 mm | - | - | - |
| 1777737548 | 14.44° C | 40% | 1022.6 hPa | 0 mm | - | - | - |
| 1777736948 | 15° C | 40% | 1022.8 hPa | 0 mm | - | - | - |
| 1777736348 | 14.44° C | 40% | 1022.7 hPa | 0 mm | - | - | - |
* Rain latest hour (hover to see other rain measurements)
** Current wind speed in m/s (hover to see current wind gust speed)